EXPRESS-AT2

Last updated on Sun Apr 12 2026 00:02:53 GMT+0000 (Coordinated Universal Time)

1 39613U 14010B 26101.46044839 .00000080 00000+0 00000+0 0 9992 2 39613 0.0406 55.3094 0000171 312.9335 53.1986 1.00273968 43820
UTC large
Height (km)
Speed (km/s)
/
Latitude / Longitude
Inclination (degrees)
Orbital Period (minutes)
Azimuth
Elevation
Range (km)
Doppler Factor

Next 0 passes for location: London (51.5072 / 0.1276)

Sorry there are no passes over London.
EXPRESS-AT2